Shaw AFB, SC

4:09 PM EST on February 25, 2017 (GMT -0500)
Shaw Air Force Base

Weather History for KSSC - March, 2014

Change the Weather History Date:

Saturday, March 29, 2014

  Actual Average Record
Temperature  
Mean Temperature 67 °F -  
Max Temperature 76 °F 69 °F 85 °F (2012)
Min Temperature 59 °F 45 °F 28 °F (2015)
Cooling Degree Days 2    
Growing Degree Days 17 (Base 50)    
Moisture  
Dew Point 60 °F    
Average Humidity 92    
Maximum Humidity 100    
Minimum Humidity 60    
Precipitation  
Precipitation 0.45 in - - ()
Sea Level Pressure  
Sea Level Pressure 29.93 in    
Wind  
Wind Speed 7 mph (East)    
Max Wind Speed 25 mph    
Max Gust Speed 32 mph    
Visibility 6 miles    
Events Fog , Rain    
Averages and records for this station are not official NWS values.
T = Trace of Precipitation, MM = Missing Value Source: NWS Daily Summary

Daily Weather History Graph

Daily Weather History Graph

Search for Another Location

Airport or City:

Trip Planner

Search our weather history database for the weather conditions in past years. The results will help you decide how hot, cold, wet, or windy it might be!

Date:

Astronomy

Mar. 29, 2014 Rise Set
Actual Time 7:13 AM EDT 7:40 PM EDT
Civil Twilight 6:48 AM EDT 8:05 PM EDT
Nautical Twilight 6:18 AM EDT 8:34 PM EDT
Astronomical Twilight 5:48 AM EDT 9:04 PM EDT
Moon 6:17 AM EDT (3/29) 6:45 PM EDT (3/29)
Length of Visible Light 13h 17m
Length of Day
12h 27m
Waning Crescent, 2% of the Moon is Illuminated
Mar 29
Waning Crescent
Mar 30
New
Apr 7
First Quarter
Apr 15
Full
Apr 22
Last Quarter

Hourly Weather History & Observations

Time (EDT) Temp. Dew Point Humidity Pressure Visibility Wind Dir Wind Speed Gust Speed Precip Events Conditions
12:04 AM 60.8 °F 59.0 °F 94% 30.08 in 7.0 mi NNW 6.9 mph - N/A Rain Light Rain
12:21 AM 60.8 °F 59.0 °F 94% 30.07 in 8.0 mi NE 4.6 mph - N/A   Overcast
12:26 AM 60.8 °F 59.0 °F 94% 30.07 in 8.0 mi NE 4.6 mph - N/A Rain Light Rain
12:31 AM 60.8 °F 59.0 °F 94% 30.07 in 6.0 mi NE 5.8 mph - N/A Rain Light Rain
12:41 AM 60.8 °F 59.0 °F 94% 30.07 in 4.0 mi NE 4.6 mph - N/A Rain Light Rain
12:51 AM 60.8 °F 59.0 °F 94% 30.07 in 2.5 mi NNE 4.6 mph - N/A Rain Light Rain
12:56 AM 60.8 °F 59.0 °F 94% 30.07 in 4.0 mi NNE 5.8 mph - N/A Rain Light Rain
12:58 AM 60.1 °F 59.5 °F 98% 30.07 in 4.0 mi North 5.8 mph - 0.04 in Rain Light Rain
1:01 AM 60.8 °F 59.0 °F 94% 30.06 in 5.0 mi NNE 6.9 mph - N/A   Overcast
1:06 AM 60.8 °F 59.0 °F 94% 30.06 in 7.0 mi NNE 8.1 mph - N/A Rain Light Rain
1:16 AM 60.8 °F 59.0 °F 94% 30.06 in 4.0 mi NNE 6.9 mph - N/A Rain Light Rain
1:21 AM 60.8 °F 59.0 °F 94% 30.06 in 2.0 mi NNE 6.9 mph - N/A Rain Heavy Rain
1:26 AM 60.8 °F 59.0 °F 94% 30.06 in 1.5 mi NE 8.1 mph - N/A Rain Heavy Rain
1:31 AM 60.8 °F 59.0 °F 94% 30.06 in 1.8 mi NNE 6.9 mph - N/A Rain Heavy Rain
1:36 AM 60.8 °F 59.0 °F 94% 30.06 in 2.0 mi NNE 6.9 mph - N/A Rain Rain
1:41 AM 60.8 °F 59.0 °F 94% 30.06 in 2.5 mi NNE 6.9 mph - N/A Rain Heavy Rain
1:46 AM 59.0 °F 59.0 °F 100% 30.06 in 3.0 mi NNE 6.9 mph - N/A Rain Rain
1:51 AM 59.0 °F 59.0 °F 100% 30.06 in 3.0 mi NE 5.8 mph - N/A Rain Light Rain
1:58 AM 59.7 °F 59.2 °F 98% 30.06 in 4.0 mi NE 4.6 mph - 0.20 in Rain Light Rain
2:13 AM 59.0 °F 59.0 °F 100% 30.05 in 6.0 mi ENE 3.5 mph - N/A Rain Light Rain
2:18 AM 59.0 °F 59.0 °F 100% 30.05 in 7.0 mi ENE 3.5 mph - N/A Rain Light Rain
2:23 AM 59.0 °F 59.0 °F 100% 30.05 in 4.0 mi ENE 4.6 mph - N/A Rain Rain
2:28 AM 59.0 °F 59.0 °F 100% 30.05 in 2.5 mi ENE 6.9 mph - N/A Rain Light Rain
2:33 AM 59.0 °F 59.0 °F 100% 30.05 in 4.0 mi NE 5.8 mph - N/A Rain Light Rain
2:38 AM 59.0 °F 59.0 °F 100% 30.04 in 7.0 mi NE 4.6 mph - N/A Rain Light Rain
2:43 AM 59.0 °F 59.0 °F 100% 30.04 in 6.0 mi NE 5.8 mph - N/A Rain Light Rain
2:48 AM 59.0 °F 59.0 °F 100% 30.03 in 5.0 mi NE 5.8 mph - N/A Rain Light Rain
2:53 AM 59.0 °F 59.0 °F 100% 30.03 in 7.0 mi NE 5.8 mph - N/A Rain Light Rain
2:58 AM 59.4 °F 58.8 °F 98% 30.04 in 9.0 mi NNE 4.6 mph - 0.03 in Rain Light Rain
3:08 AM 59.0 °F 59.0 °F 100% 30.03 in 8.0 mi NE 2.3 mph - N/A Rain Light Rain
3:18 AM 59.0 °F 59.0 °F 100% 30.02 in 9.0 mi ENE 6.9 mph - N/A Rain Light Rain
3:23 AM 59.0 °F 59.0 °F 100% 30.02 in 9.0 mi NE 9.2 mph - N/A Rain Light Rain
3:28 AM 59.0 °F 59.0 °F 100% 30.01 in 9.0 mi NE 8.1 mph - N/A   Light Drizzle
3:30 AM 59.0 °F 59.0 °F 100% 30.01 in 10.0 mi NE 9.2 mph - N/A   Overcast
3:32 AM 59.0 °F 59.0 °F 100% 30.01 in 10.0 mi NE 9.2 mph - N/A Rain Light Rain
3:47 AM 59.0 °F 59.0 °F 100% 30.00 in 6.0 mi ENE 8.1 mph - N/A Rain Rain
3:52 AM 59.0 °F 59.0 °F 100% 29.99 in 4.0 mi NE 9.2 mph - N/A Rain Rain
3:58 AM 59.4 °F 58.8 °F 98% 29.99 in 4.0 mi ENE 6.9 mph - 0.04 in Rain Light Rain
4:03 AM 59.0 °F 59.0 °F 100% 29.99 in 6.0 mi ENE 6.9 mph - N/A Rain Light Rain
4:13 AM 59.0 °F 59.0 °F 100% 29.98 in 8.0 mi ENE 6.9 mph - N/A Rain Light Rain
4:14 AM 59.0 °F 59.0 °F 100% 29.98 in 9.0 mi ENE 6.9 mph - N/A   Overcast
4:18 AM 59.0 °F 59.0 °F 100% 29.98 in 10.0 mi NE 6.9 mph - N/A   Light Drizzle
4:58 AM 59.2 °F 58.6 °F 98% 29.99 in 10.0 mi NE 5.8 mph - 0.02 in Rain Light Rain
5:21 AM 59.0 °F 59.0 °F 100% 29.98 in 10.0 mi ENE 4.6 mph - N/A   Overcast
5:41 AM 59.0 °F 59.0 °F 100% 29.96 in 10.0 mi NE 5.8 mph - N/A   Overcast
5:58 AM 59.2 °F 58.8 °F 99% 29.96 in 10.0 mi ENE 4.6 mph - 0.00 in   Overcast
6:28 AM 59.0 °F 59.0 °F 100% 29.95 in 8.0 mi Variable 5.8 mph - N/A   Overcast
6:38 AM 59.0 °F 59.0 °F 100% 29.95 in 6.0 mi East 8.1 mph - N/A   Overcast
6:43 AM 59.0 °F 59.0 °F 100% 29.94 in 4.0 mi East 8.1 mph - N/A   Overcast
6:48 AM 59.0 °F 59.0 °F 100% 29.95 in 2.5 mi East 6.9 mph - N/A   Overcast
6:53 AM 59.0 °F 59.0 °F 100% 29.95 in 1.8 mi East 5.8 mph - N/A   Overcast
6:58 AM 59.4 °F 59.0 °F 99% 29.96 in 1.5 mi East 5.8 mph - N/A   Overcast
7:02 AM 59.0 °F 59.0 °F 100% 29.94 in 1.2 mi East 4.6 mph - N/A Rain Light Rain
7:07 AM 59.0 °F 59.0 °F 100% 29.94 in 1.0 mi ENE 5.8 mph - N/A Rain Light Rain
7:17 AM 59.0 °F 59.0 °F 100% 29.95 in 0.8 mi East 4.6 mph - N/A Rain Light Rain
7:20 AM 59.0 °F 59.0 °F 100% 29.95 in 0.8 mi ENE 4.6 mph - N/A   Overcast
7:25 AM 59.0 °F 59.0 °F 100% 29.95 in 0.5 mi ENE 4.6 mph - N/A Fog Fog
7:30 AM 59.0 °F 59.0 °F 100% 29.95 in 0.5 mi East 3.5 mph - N/A Fog Fog
7:40 AM 59.0 °F 59.0 °F 100% 29.95 in 0.2 mi East 4.6 mph - N/A Fog Fog
7:55 AM 60.8 °F 59.0 °F 94% 29.95 in 0.5 mi East 5.8 mph - N/A Fog Fog
7:58 AM 60.8 °F 59.0 °F 94% 29.96 in 0.5 mi East 5.8 mph - 0.00 in Fog Fog
8:03 AM 60.8 °F 59.0 °F 94% 29.94 in 0.5 mi East 6.9 mph - N/A Fog Fog
8:05 AM 60.8 °F 59.0 °F 94% 29.94 in 0.5 mi East 5.8 mph - N/A Fog , Rain Light Rain
8:10 AM 60.8 °F 60.8 °F 100% 29.95 in 0.8 mi ESE 6.9 mph - N/A Rain Light Rain
8:15 AM 60.8 °F 60.8 °F 100% 29.94 in 1.0 mi ESE 5.8 mph - N/A Rain Rain
8:25 AM 60.8 °F 60.8 °F 100% 29.94 in 1.0 mi ESE 5.8 mph - N/A Rain Light Rain
8:30 AM 60.8 °F 60.8 °F 100% 29.95 in 1.5 mi ESE 6.9 mph - N/A Rain Light Rain
8:35 AM 60.8 °F 60.8 °F 100% 29.95 in 2.0 mi SE 5.8 mph - N/A Rain Light Rain
8:40 AM 60.8 °F 60.8 °F 100% 29.94 in 3.0 mi SE 4.6 mph - N/A Rain Light Rain
8:45 AM 60.8 °F 60.8 °F 100% 29.94 in 2.5 mi ESE 5.8 mph - N/A Rain Light Rain
8:55 AM 60.8 °F 60.8 °F 100% 29.94 in 3.0 mi SE 8.1 mph - N/A   Light Drizzle
8:58 AM 61.5 °F 61.2 °F 99% 29.94 in 4.0 mi SE 8.1 mph - 0.11 in   Light Drizzle
9:03 AM 60.8 °F 60.8 °F 100% 29.93 in 6.0 mi SE 8.1 mph - N/A   Light Drizzle
9:08 AM 62.6 °F 60.8 °F 94% 29.93 in 7.0 mi SE 6.9 mph - N/A   Overcast
9:11 AM 62.6 °F 60.8 °F 94% 29.93 in 6.0 mi SE 6.9 mph - N/A Rain Light Rain
9:25 AM 62.6 °F 62.6 °F 100% 29.92 in 7.0 mi SE 5.8 mph - N/A   Overcast
9:58 AM 62.4 °F 62.1 °F 99% 29.91 in 10.0 mi SE 5.8 mph - 0.01 in   Overcast
10:38 AM 64.4 °F 62.6 °F 94% 29.90 in 10.0 mi South 5.8 mph - N/A   Overcast
10:58 AM 64.2 °F 63.7 °F 98% 29.91 in 10.0 mi South 5.8 mph - N/A   Overcast
11:08 AM 64.4 °F 64.4 °F 100% 29.89 in 10.0 mi South 8.1 mph - N/A   Overcast
11:18 AM 64.4 °F 64.4 °F 100% 29.88 in 10.0 mi South 6.9 mph - N/A   Overcast
11:19 AM 64.4 °F 64.4 °F 100% 29.88 in 10.0 mi SSE 5.8 mph - N/A   Overcast
11:54 AM 66.2 °F 64.4 °F 94% 29.84 in 10.0 mi South 5.8 mph - N/A   Overcast
11:58 AM 67.3 °F 64.6 °F 91% 29.84 in 10.0 mi South 8.1 mph - N/A   Overcast
12:13 PM 68.0 °F 64.4 °F 88% 29.82 in 10.0 mi South 5.8 mph - N/A   Overcast
12:28 PM 69.8 °F 64.4 °F 83% 29.80 in 10.0 mi South 5.8 mph - N/A   Mostly Cloudy
12:33 PM 69.8 °F 62.6 °F 78% 29.80 in 10.0 mi SE 6.9 mph - N/A   Mostly Cloudy
12:53 PM 69.8 °F 62.6 °F 78% 29.79 in 10.0 mi South 8.1 mph - N/A   Mostly Cloudy
12:58 PM 70.9 °F 63.1 °F 76% 29.79 in 10.0 mi South 10.4 mph - N/A   Mostly Cloudy
1:28 PM 69.8 °F 62.6 °F 78% 29.78 in 10.0 mi SSE 10.4 mph - N/A   Mostly Cloudy
1:33 PM 71.6 °F 62.6 °F 73% 29.77 in 10.0 mi SE 10.4 mph - N/A   Mostly Cloudy
1:38 PM 71.6 °F 62.6 °F 73% 29.77 in 10.0 mi SSE 11.5 mph - N/A   Mostly Cloudy
1:43 PM 71.6 °F 62.6 °F 73% 29.77 in 10.0 mi South 8.1 mph - N/A   Mostly Cloudy
1:48 PM 71.6 °F 62.6 °F 73% 29.76 in 10.0 mi South 6.9 mph - N/A   Mostly Cloudy
1:53 PM 71.6 °F 62.6 °F 73% 29.76 in 10.0 mi South 8.1 mph - N/A   Mostly Cloudy
1:58 PM 72.1 °F 63.0 °F 73% 29.76 in 10.0 mi South 10.4 mph - N/A   Mostly Cloudy
2:58 PM 74.7 °F 62.2 °F 65% 29.72 in 10.0 mi South 10.4 mph - N/A   Mostly Cloudy
3:58 PM 75.6 °F 61.2 °F 61% 29.69 in 10.0 mi South 11.5 mph - N/A   Mostly Cloudy
4:58 PM 74.7 °F 59.9 °F 60% 29.66 in 10.0 mi SW 11.5 mph - N/A   Overcast
5:11 PM 75.2 °F 60.8 °F 61% 29.66 in 10.0 mi West 8.1 mph - N/A Rain Light Rain
5:26 PM 73.4 °F 62.6 °F 69% 29.66 in 10.0 mi SW 9.2 mph - N/A   Mostly Cloudy
5:58 PM 72.9 °F 61.5 °F 67% 29.65 in 10.0 mi WSW 8.1 mph - 0.00 in   Mostly Cloudy
6:58 PM 73.4 °F 59.9 °F 63% 29.65 in 10.0 mi SW 13.8 mph 20.7 mph N/A   Scattered Clouds
7:58 PM 69.6 °F 59.7 °F 71% 29.66 in 10.0 mi West 6.9 mph - N/A   Clear
8:58 PM 68.9 °F 55.2 °F 62% 29.65 in 10.0 mi SW 18.4 mph 25.3 mph N/A   Clear
9:58 PM 65.1 °F 53.6 °F 66% 29.66 in 10.0 mi WSW 11.5 mph 24.2 mph N/A   Clear
10:58 PM 62.8 °F 53.4 °F 71% 29.68 in 10.0 mi WSW 18.4 mph 24.2 mph N/A   Clear
11:58 PM 61.0 °F 50.5 °F 68% 29.69 in 10.0 mi West 25.3 mph 32.2 mph N/A   Overcast